Hourly Data Report for September 05, 2017

All times are specified in Local Standard Time (LST). Add 1 hour to adjust for Daylight Saving Time where and when it is observed.

CLYDE RIVER A
NUNAVUT

70°29'09.000" N
68°31'01.000" W
26.50 m
2400804
71090
YCY

Download Data

Hourly Data (September 2017)
Hourly Data Report for September 5, 2017
Temp Definition
°C
Dew Point Temp Definition
°C
Rel Hum Definition
%
Wind Dir Definition
10's deg

Wind Spd Definition
km/h
Visibility Definition
km
Stn Press Definition
kPa
Hmdx Definition


Wind Chill Definition


Weather Definition


TIME
00:00 Legend Double Dagger 1.2 0.3 94   0 16.1 100.95     LegendNANA
01:00 Legend Double Dagger 1.5 0.3 92   0 16.1 100.94     LegendNANA
02:00 Legend Double Dagger 1.5 0.3 92 14 9 16.1 100.92     LegendNANA
03:00 Legend Double Dagger 1.4 0.3 92 15 9 16.1 100.91     LegendNANA
04:00 Legend Double Dagger 1.6 0.1 90 15 8 16.1 100.91     LegendNANA
05:00 Legend Double Dagger 2.4 0.6 88 16 11 16.1 100.88     LegendNANA
06:00 Legend Double Dagger 2.8 0.4 84 1 4 16.1 100.85     LegendNANA
07:00 Legend Double Dagger 3.1 0.5 83 6 4 16.1 100.83     LegendNANA
08:00 Legend Double Dagger 3.9 -0.4 74 LegendMM 4 16.1 100.79     LegendNANA
09:00 Legend Double Dagger 4.9 -0.6 68 13 8 16.1 100.76     LegendNANA
10:00 Legend Double Dagger 5.8 -1.1 61 15 11 16.1 100.71     LegendNANA
11:00 Legend Double Dagger 5.7 -2.8 54 17 9 16.1 100.67     LegendNANA
12:00 Legend Double Dagger 6.0 -3.2 52 14 13 16.1 100.65     LegendNANA
13:00 Legend Double Dagger 6.2 -3.2 51 13 15 16.1 100.62     LegendNANA
14:00 Legend Double Dagger 5.1 -0.5 67 12 15 16.1 100.62     LegendNANA
15:00 Legend Double Dagger 4.5 -0.1 72 13 18 16.1 100.61     LegendNANA
16:00 Legend Double Dagger 4.1 -0.3 73 14 17 16.1 100.60     LegendNANA
17:00 Legend Double Dagger 3.9 -0.4 74 14 18 16.1 100.57     LegendNANA
18:00 Legend Double Dagger 3.6 -0.1 77 13 17 16.1 100.55     LegendNANA
19:00 Legend Double Dagger 3.5 -0.2 77 13 13 16.1 100.55     LegendNANA
20:00 Legend Double Dagger 3.4 -0.1 78 12 11 16.1 100.55     LegendNANA
21:00 Legend Double Dagger 3.1 -1.9 70 5 11 16.1 100.56     Rain
22:00 Legend Double Dagger 1.9 -0.3 85 29 15 16.1 100.56     LegendNANA
23:00 Legend Double Dagger 1.1 0.1 93 33 22 16.1 100.58     Rain

Notes on Data Quality.

Legend

  • E = Estimated
  • M = Missing
  • NA = Not Available
  • ‡ = Partner data that is not subject to review by the National Climate Archives
Date modified: